Hourly Weather Juigalpa

Today, 5 December, Saturday

Time Temperature Precipitation Wind Pressure Humidity
00:00 +25°C° 0 mm 3 mps 752 mmHg 93%
01:00 +25°C° 0 mm 3 mps 752 mmHg 93%
02:00 +25°C° 0 mm 3 mps 751 mmHg 93%
03:00 +24°C° 0 mm 3 mps 751 mmHg 94%
04:00 +25°C° 0.1 mm 3 mps 752 mmHg 93%
05:00 +25°C° 0.1 mm 3 mps 752 mmHg 93%
06:00 +25°C° 0.1 mm 3 mps 752 mmHg 92%
07:00 +26°C° 0.1 mm 4 mps 753 mmHg 90%
08:00 +27°C° 0.1 mm 4 mps 753 mmHg 87%
09:00 +27°C° 0.1 mm 5 mps 754 mmHg 84%
10:00 +28°C° 0.2 mm 5 mps 753 mmHg 81%
11:00 +29°C° 0.2 mm 5 mps 752 mmHg 78%
12:00 +30°C° 0.2 mm 5 mps 752 mmHg 74%
13:00 +30°C° 0.4 mm 5 mps 751 mmHg 76%
14:00 +30°C° 0.4 mm 5 mps 751 mmHg 77%
15:00 +29°C° 0.4 mm 5 mps 750 mmHg 79%
16:00 +28°C° 0 mm 4 mps 750 mmHg 83%
17:00 +27°C° 0 mm 3 mps 751 mmHg 86%
18:00 +26°C° 0 mm 3 mps 751 mmHg 90%
19:00 +26°C° 0 mm 3 mps 751 mmHg 90%
20:00 +25°C° 0 mm 3 mps 752 mmHg 91%
21:00 +25°C° 0 mm 3 mps 753 mmHg 91%
22:00 +25°C° 0 mm 3 mps 752 mmHg 91%
23:00 +24°C° 0 mm 3 mps 752 mmHg 92%

Tomorrow, 6 December, Sunday

Time Temperature Precipitation Wind Pressure Humidity
00:00 +24°C° 0 mm 3 mps 752 mmHg 92%
01:00 +24°C° 0 mm 3 mps 752 mmHg 92%
02:00 +24°C° 0 mm 3 mps 751 mmHg 92%
03:00 +24°C° 0 mm 3 mps 751 mmHg 92%
04:00 +24°C° 0 mm 3 mps 751 mmHg 92%
05:00 +24°C° 0 mm 3 mps 752 mmHg 91%
06:00 +24°C° 0 mm 3 mps 752 mmHg 91%
07:00 +26°C° 0 mm 4 mps 752 mmHg 87%
08:00 +27°C° 0 mm 5 mps 752 mmHg 82%
09:00 +28°C° 0 mm 5 mps 753 mmHg 78%
10:00 +29°C° 0 mm 5 mps 752 mmHg 76%
11:00 +30°C° 0 mm 5 mps 752 mmHg 73%
12:00 +32°C° 0 mm 5 mps 751 mmHg 70%
13:00 +32°C° 0 mm 4 mps 750 mmHg 71%
14:00 +32°C° 0 mm 4 mps 750 mmHg 71%
15:00 +32°C° 0 mm 4 mps 749 mmHg 71%
16:00 +29°C° 0 mm 3 mps 749 mmHg 77%
17:00 +28°C° 0 mm 3 mps 750 mmHg 82%
18:00 +26°C° 0 mm 2 mps 750 mmHg 88%
19:00 +26°C° 0 mm 2 mps 751 mmHg 88%
20:00 +26°C° 0 mm 3 mps 751 mmHg 88%
21:00 +25°C° 0 mm 3 mps 752 mmHg 88%
22:00 +25°C° 0 mm 2 mps 752 mmHg 88%
23:00 +25°C° 0 mm 2 mps 752 mmHg 89%

Day after tomorrow, 7 December, Monday

Time Temperature Precipitation Wind Pressure Humidity
00:00 +24°C° 0 mm 2 mps 751 mmHg 89%
01:00 +24°C° 0 mm 2 mps 751 mmHg 89%
02:00 +24°C° 0 mm 2 mps 751 mmHg 88%
03:00 +24°C° 0 mm 2 mps 750 mmHg 88%
04:00 +24°C° 0 mm 2 mps 751 mmHg 90%
05:00 +23°C° 0 mm 2 mps 751 mmHg 91%
06:00 +23°C° 0 mm 2 mps 751 mmHg 93%
07:00 +25°C° 0 mm 3 mps 752 mmHg 88%
08:00 +27°C° 0 mm 4 mps 752 mmHg 83%
09:00 +28°C° 0 mm 5 mps 753 mmHg 78%
10:00 +29°C° 0 mm 5 mps 752 mmHg 76%
11:00 +30°C° 0 mm 6 mps 751 mmHg 74%
12:00 +32°C° 0 mm 6 mps 751 mmHg 72%
13:00 +30°C° 0 mm 6 mps 750 mmHg 72%
14:00 +30°C° 0 mm 5 mps 750 mmHg 72%
15:00 +30°C° 0 mm 5 mps 749 mmHg 73%
16:00 +29°C° 0 mm 5 mps 749 mmHg 77%
17:00 +28°C° 0 mm 4 mps 750 mmHg 81%
18:00 +27°C° 0 mm 3 mps 750 mmHg 85%
19:00 +26°C° 0 mm 3 mps 751 mmHg 86%
20:00 +26°C° 0 mm 3 mps 752 mmHg 87%
21:00 +25°C° 0 mm 3 mps 752 mmHg 88%
22:00 +25°C° 0 mm 3 mps 752 mmHg 89%
23:00 +25°C° 0 mm 3 mps 752 mmHg 91%

8 December, Tuesday

Time Temperature Precipitation Wind Pressure Humidity
00:00 +25°C° 0 mm 4 mps 752 mmHg 92%
01:00 +25°C° 0 mm 4 mps 752 mmHg 90%
02:00 +23°C° 0 mm 4 mps 752 mmHg 87%
03:00 +23°C° 0 mm 5 mps 751 mmHg 85%
04:00 +23°C° 0 mm 5 mps 752 mmHg 85%
05:00 +23°C° 0 mm 5 mps 752 mmHg 86%
06:00 +23°C° 0 mm 5 mps 752 mmHg 87%
07:00 +25°C° 0 mm 5 mps 753 mmHg 83%
08:00 +27°C° 0 mm 6 mps 753 mmHg 79%
09:00 +28°C° 0 mm 7 mps 753 mmHg 76%
10:00 +29°C° 0 mm 7 mps 753 mmHg 74%
11:00 +30°C° 0 mm 7 mps 752 mmHg 72%
12:00 +30°C° 0 mm 7 mps 752 mmHg 70%
13:00 +30°C° 0 mm 7 mps 751 mmHg 71%
14:00 +30°C° 0 mm 7 mps 750 mmHg 72%
15:00 +30°C° 0 mm 6 mps 750 mmHg 73%
16:00 +29°C° 0.3 mm 6 mps 750 mmHg 75%
17:00 +28°C° 0.3 mm 6 mps 751 mmHg 78%
18:00 +27°C° 0.3 mm 6 mps 752 mmHg 81%
19:00 +26°C° 0 mm 6 mps 752 mmHg 80%
20:00 +24°C° 0 mm 6 mps 753 mmHg 80%
21:00 +24°C° 0 mm 6 mps 754 mmHg 79%
22:00 +23°C° 0 mm 6 mps 754 mmHg 79%
23:00 +23°C° 0 mm 5 mps 754 mmHg 79%

9 December, Wednesday

Time Temperature Precipitation Wind Pressure Humidity
00:00 +22°C° 0 mm 5 mps 753 mmHg 79%
01:00 +22°C° 0 mm 5 mps 753 mmHg 80%
02:00 +22°C° 0 mm 5 mps 753 mmHg 80%
03:00 +22°C° 0 mm 5 mps 752 mmHg 81%
04:00 +22°C° 0 mm 5 mps 753 mmHg 80%
05:00 +22°C° 0 mm 6 mps 753 mmHg 79%
06:00 +22°C° 0 mm 6 mps 754 mmHg 78%
07:00 +23°C° 0 mm 7 mps 754 mmHg 76%
08:00 +24°C° 0 mm 8 mps 755 mmHg 75%
09:00 +26°C° 0 mm 10 mps 755 mmHg 73%
10:00 +27°C° 0 mm 10 mps 754 mmHg 73%
11:00 +28°C° 0 mm 10 mps 754 mmHg 73%
12:00 +28°C° 0 mm 10 mps 753 mmHg 73%
13:00 +28°C° 0 mm 10 mps 753 mmHg 73%
14:00 +28°C° 0 mm 9 mps 752 mmHg 73%
15:00 +28°C° 0 mm 9 mps 752 mmHg 73%
16:00 +27°C° 0 mm 8 mps 752 mmHg 74%
17:00 +27°C° 0 mm 8 mps 752 mmHg 74%
18:00 +26°C° 0 mm 8 mps 753 mmHg 75%
19:00 +26°C° 0 mm 9 mps 753 mmHg 75%
20:00 +24°C° 0 mm 9 mps 754 mmHg 75%
21:00 +24°C° 0 mm 10 mps 754 mmHg 75%
22:00 +23°C° 0 mm 10 mps 754 mmHg 76%
23:00 +23°C° 0 mm 10 mps 754 mmHg 77%

10 December, Thursday

Time Temperature Precipitation Wind Pressure Humidity
00:00 +23°C° 0 mm 10 mps 754 mmHg 79%
01:00 +23°C° 0 mm 10 mps 753 mmHg 79%
02:00 +22°C° 0 mm 10 mps 753 mmHg 79%
03:00 +22°C° 0 mm 10 mps 752 mmHg 79%
04:00 +22°C° 0 mm 10 mps 753 mmHg 79%
05:00 +22°C° 0 mm 10 mps 753 mmHg 79%
06:00 +22°C° 0 mm 10 mps 753 mmHg 79%
07:00 +23°C° 0 mm 10 mps 754 mmHg 77%
08:00 +24°C° 0 mm 10 mps 754 mmHg 75%
09:00 +24°C° 0 mm 11 mps 755 mmHg 74%
10:00 +26°C° 0 mm 10 mps 754 mmHg 72%
11:00 +27°C° 0 mm 9 mps 754 mmHg 71%
12:00 +28°C° 0 mm 9 mps 753 mmHg 69%
13:00 +28°C° 0 mm 8 mps 752 mmHg 70%
14:00 +28°C° 0 mm 8 mps 752 mmHg 71%
15:00 +28°C° 0 mm 7 mps 751 mmHg 72%
16:00 +27°C° 0 mm 6 mps 752 mmHg 74%
17:00 +26°C° 0 mm 6 mps 752 mmHg 76%
18:00 +25°C° 0 mm 5 mps 752 mmHg 78%
19:00 +24°C° 0 mm 6 mps 753 mmHg 78%
20:00 +24°C° 0 mm 7 mps 753 mmHg 78%
21:00 +24°C° 0 mm 7 mps 753 mmHg 78%
22:00 +23°C° 0 mm 8 mps 753 mmHg 79%
23:00 +23°C° 0 mm 8 mps 753 mmHg 80%
Show more